Home   Weather   Memmingen   Past weeks

Flag for Germany Past Weather in Memmingen, Bavaria, Germany — Yesterday and Last 2 Weeks

Now
34 °F

Chilly.


Feels Like: 34 °F
Forecast: 39 / 59 °F
Wind: 2 mph from East

Location: Laupheim Airport

Current Time: Apr 24, 2017 at 3:35:23 am

Latest Report: Apr 24, 2017 at 2:20 am


Visibility: N/A

Pressure: 30.15 "Hg (27.97 "Hg at 602m altitude)

Humidity: 70%

Dew Point: 25 °F

Location of MemmingenLocation

Past Weather in Memmingen — Graph

°F

Memmingen Temperature Yesterday

Maximum temperature yesterday: 48 °F (at 3:20 pm)
Minimum temperature yesterday: 37 °F (at 4:20 am)
Average temperature yesterday: 42 °F

High & Low Weather Summary for the Past Weeks

 TemperatureHumidityPressure
High72 °F (Apr 9, 4:20 pm)100% (Apr 18, 2:58 am)30.51 "Hg (Apr 18, 2:58 am)
Low27 °F (Apr 20, 4:20 am)22% (Apr 10, 5:20 pm)29.95 "Hg (Apr 12, 5:20 pm)
Average44 °F67%30.18 "Hg
* Reported Apr 9 1:20 am — Apr 24 1:20 am, Memmingen, Weather by CustomWeather, © 2017

Note: Actual official high and low records may vary slightly from our data, if they occured in-between our weather recording intervals... More about our weather records

Advertising

Memmingen Weather History for the Previous 24 Hours

Scroll right to see more
 ConditionsComfort  
Time TempWeatherWind HumidityBarometerVisibility
1:20 am
Mon, Apr 24
36 °FChilly.5 mph70%30.18 "HgN/A
12:20 am37 °FPassing clouds.6 mph65%30.21 "HgN/A
11:20 pm
Sun, Apr 23
37 °FPassing clouds.6 mph65%30.21 "HgN/A
10:20 pm39 °FPassing clouds.5 mph61%30.21 "HgN/A
9:20 pm39 °FPassing clouds.5 mph61%30.21 "HgN/A
8:20 pm43 °FScattered clouds.5 mph53%30.18 "HgN/A
7:20 pm46 °FCool.5 mph43%30.18 "Hg6 mi
6:20 pm48 °FCool.6 mph40%30.18 "Hg6 mi
5:20 pm48 °FCool.3 mph40%30.18 "Hg6 mi
4:20 pm48 °FCool.3 mph40%30.18 "Hg6 mi
3:20 pm48 °FCool.6 mph40%30.18 "Hg6 mi
2:20 pm46 °FCool.6 mph46%30.21 "Hg5 mi
1:20 pm45 °FQuite cool.6 mph53%30.21 "Hg4 mi
12:20 pm43 °FQuite cool.7 mph57%30.24 "Hg5 mi
11:20 am43 °FQuite cool.7 mph61%30.21 "Hg4 mi
10:20 am41 °FBroken clouds.6 mph66%30.24 "HgN/A
9:20 am39 °FPartly sunny.6 mph75%30.24 "HgN/A
8:20 am39 °FBroken clouds.3 mph75%30.21 "HgN/A
7:20 am37 °FPartly sunny.2 mph81%30.21 "HgN/A
6:20 am37 °FPartly sunny.3 mph81%30.21 "HgN/A
5:20 am37 °FPassing clouds.5 mph81%30.18 "HgN/A
4:20 am37 °FPassing clouds.5 mph87%30.18 "HgN/A
3:20 am39 °FPassing clouds.5 mph81%30.18 "HgN/A
Weather by CustomWeather, © 2017

See weather overviewHow to use our weather pages